カタログに戻る

EXPRESS MD1

運用中通信GEO
NORAD 33596·PAYLOAD·🇷🇺 Russia

打ち上げ Feb 11, 2009 から Baikonur Cosmodrome

Loading…

TLE

最新Source: Space-Track

元期: Sep 14, 2026, 06:45 UTC

1 33596U 09007B   26257.28157766 -.00000245  00000-0  00000-0 0  9998
2 33596  10.3779  51.7973 0008512 354.2509   6.1401  0.99113466 63955

AllMySatでEXPRESS MD1をリアルタイム追跡

Download on the App Store